9A4AM-13 Weather Reports


time (UTC)temp
C
wind
direction
speed
KPH
gust
KPH
rain 1hr
cm
rain 24hr
cm
rain mn
cm
humidity
%
barometer
mb
20260906023021 21 0.0 0.0 0.00 0.00 0.00 10 1029.4
20260906022021 21 0.0 0.0 0.00 0.00 0.00 10 1029.3
20260906021021 21 0.0 0.0 0.00 0.00 0.00 10 1029.3
20260906020021 21 0.0 0.0 0.00 0.00 0.00 10 1029.3
20260906015021 21 0.0 0.0 0.00 0.00 0.00 10 1029.1
20260906014021 21 0.0 0.0 0.00 0.00 0.00 10 1029.0
20260906013021 21 0.0 0.0 0.00 0.00 0.00 10 1029.0
20260906012021 21 0.0 0.0 0.00 0.00 0.00 10 1029.1
20260906011021 21 0.0 0.0 0.00 0.00 0.00 10 1029.0
20260906010021 21 0.0 0.0 0.00 0.00 0.00 10 1028.9
20260906005021 21 0.0 0.0 0.00 0.00 0.00 10 1028.8
20260906004021 21 0.0 0.0 0.00 0.00 0.00 10 1028.7
20260906003021 21 0.0 0.0 0.00 0.00 0.00 10 1028.7
20260906002021 21 0.0 0.0 0.00 0.00 0.00 10 1028.6
20260906001021 21 0.0 0.0 0.00 0.00 0.00 10 1028.6
20260906000021 22 0.0 0.0 0.00 0.00 0.00 10 1028.4
20260905235021 22 0.0 0.0 0.00 0.00 0.00 10 1028.4
20260905234021 22 0.0 0.0 0.00 0.00 0.00 10 1028.3
20260905233021 22 0.0 0.0 0.00 0.00 0.00 10 1028.2
20260905232021 22 0.0 0.0 0.00 0.00 0.00 10 1028.1
20260905231021 22 0.0 0.0 0.00 0.00 0.00 10 1028.1
20260905230021 22 0.0 0.0 0.00 0.00 0.00 10 1028.2
20260905225021 22 0.0 0.0 0.00 0.00 0.00 10 1028.2
20260905224021 22 0.0 0.0 0.00 0.00 0.00 10 1028.2
20260905223021 22 0.0 0.0 0.00 0.00 0.00 10 1028.1
20260905222021 22 0.0 0.0 0.00 0.00 0.00 10 1028.0
20260905221021 22 0.0 0.0 0.00 0.00 0.00 10 1027.9
20260905220021 22 0.0 0.0 0.00 0.00 0.00 10 1027.9
20260905215021 22 0.0 0.0 0.00 0.00 0.00 10 1027.8
20260905214021 22 0.0 0.0 0.00 0.00 0.00 10 1027.7
20260905213020 22 0.0 0.0 0.00 0.00 0.00 10 1027.6
20260905212021 22 0.0 0.0 0.00 0.00 0.00 10 1027.6
20260905211020 22 0.0 0.0 0.00 0.00 0.00 10 1027.5
20260905210020 22 0.0 0.0 0.00 0.00 0.00 10 1027.3
20260905205020 22 0.0 0.0 0.00 0.00 0.00 10 1027.3
20260905204020 22 0.0 0.0 0.00 0.00 0.00 10 1027.2
20260905203021 23 0.0 0.0 0.00 0.00 0.00 10 1027.1
20260905202020 23 0.0 0.0 0.00 0.00 0.00 10 1027.0
20260905201020 23 0.0 0.0 0.00 0.00 0.00 10 1026.9
20260905200020 23 0.0 0.0 0.00 0.00 0.00 10 1026.8
20260905195020 23 0.0 0.0 0.00 0.00 0.00 10 1026.5
20260905194020 23 0.0 0.0 0.00 0.00 0.00 10 1026.5
20260905193020 24 0.0 0.0 0.00 0.00 0.00 10 1026.6
20260905192020 24 0.0 0.0 0.00 0.00 0.00 10 1026.4
20260905191020 24 0.0 0.0 0.00 0.00 0.00 10 1026.4
20260905190020 24 0.0 0.0 0.00 0.00 0.00 10 1026.2
20260905185020 25 0.0 0.0 0.00 0.00 0.00 10 1026.0
20260905184020 24 0.0 0.0 0.00 0.00 0.00 10 1025.8
20260905183020 24 0.0 0.0 0.00 0.00 0.00 10 1025.7
20260905182020 24 0.0 0.0 0.00 0.00 0.00 10 1025.6
20260905181020 25 0.0 0.0 0.00 0.00 0.00 10 1025.4
20260905180020 25 0.0 0.0 0.00 0.00 0.00 10 1025.2
20260905175020 25 0.0 0.0 0.00 0.00 0.00 99 1025.0
20260905174020 25 0.0 0.0 0.00 0.00 0.00 98 1024.8
20260905173020 25 0.0 0.0 0.00 0.00 0.00 97 1024.7
20260905172020 25 0.0 0.0 0.00 0.00 0.00 95 1024.8
20260905171020 26 0.0 0.0 0.00 0.00 0.00 92 1024.8
20260905170020 26 0.0 0.0 0.00 0.00 0.00 90 1024.6
20260905165020 26 0.0 0.0 0.00 0.00 0.00 88 1024.3
20260905164020 27 0.0 0.0 0.00 0.00 0.00 83 1024.2
20260905163020 27 0.0 0.0 0.00 0.00 0.00 80 1024.0
20260905162020 27 0.0 0.0 0.00 0.00 0.00 77 1023.9
20260905161020 27 0.0 0.0 0.00 0.00 0.00 74 1023.9
20260905160020 28 0.0 0.0 0.00 0.00 0.00 72 1023.9
20260905155020 28 0.0 0.0 0.00 0.00 0.00 69 1023.7
20260905154020 29 0.0 0.0 0.00 0.00 0.00 67 1023.6
20260905153020 29 0.0 0.0 0.00 0.00 0.00 67 1023.6
20260905152020 30 0.0 0.0 0.00 0.00 0.00 66 1023.5
20260905151022 30 0.0 0.0 0.00 0.00 0.00 65 1023.4
20260905150020 31 0.0 0.0 0.00 0.00 0.00 65 1023.4
20260905145020 31 0.0 0.0 0.00 0.00 0.00 64 1023.3
20260905144020 31 0.0 0.0 0.00 0.00 0.00 65 1023.2
20260905143019 31 0.0 0.0 0.00 0.00 0.00 65 1023.1
20260905142019 32 0.0 0.0 0.00 0.00 0.00 64 1023.1
20260905141019 32 0.0 0.0 0.00 0.00 0.00 61 1022.9
20260905140019 33 0.0 0.0 0.00 0.00 0.00 60 1023.0
20260905135019 33 0.0 0.0 0.00 0.00 0.00 61 1022.8
20260905134019 33 0.0 0.0 0.00 0.00 0.00 60 1022.8
20260905133020 33 0.0 0.0 0.00 0.00 0.00 61 1022.7
20260905132019 33 0.0 0.0 0.00 0.00 0.00 62 1022.8
20260905131019 35 0.0 0.0 0.00 0.00 0.00 61 1022.8
20260905130019 34 0.0 0.0 0.00 0.00 0.00 64 1022.8
20260905125019 33 0.0 0.0 0.00 0.00 0.00 65 1023.0
20260905124019 35 0.0 0.0 0.00 0.00 0.00 64 1023.3
20260905123019 33 0.0 0.0 0.00 0.00 0.00 64 1023.5
20260905122019 34 0.0 0.0 0.00 0.00 0.00 66 1023.4
20260905121019 32 0.0 0.0 0.00 0.00 0.00 67 1023.6
20260905120019 33 0.0 0.0 0.00 0.00 0.00 64 1023.8
20260905115019 34 0.0 0.0 0.00 0.00 0.00 64 1023.7
20260905114019 33 0.0 0.0 0.00 0.00 0.00 66 1023.8
20260905113019 33 0.0 0.0 0.00 0.00 0.00 68 1023.9
20260905112019 33 0.0 0.0 0.00 0.00 0.00 68 1023.9
20260905111019 33 0.0 0.0 0.00 0.00 0.00 68 1023.7
20260905110019 33 0.0 0.0 0.00 0.00 0.00 75 1023.9
20260905105019 33 0.0 0.0 0.00 0.00 0.00 73 1023.7
20260905104019 32 0.0 0.0 0.00 0.00 0.00 80 1023.6
20260905103019 32 0.0 0.0 0.00 0.00 0.00 86 1023.7
20260905102019 32 0.0 0.0 0.00 0.00 0.00 91 1023.6
20260905101019 33 0.0 0.0 0.00 0.00 0.00 90 1023.4
20260905100019 32 0.0 0.0 0.00 0.00 0.00 90 1023.5
20260905095019 33 0.0 0.0 0.00 0.00 0.00 88 1023.4
20260905094019 32 0.0 0.0 0.00 0.00 0.00 88 1023.5
20260905093019 33 0.0 0.0 0.00 0.00 0.00 85 1023.4
20260905092019 32 0.0 0.0 0.00 0.00 0.00 79 1023.2
20260905091019 32 0.0 0.0 0.00 0.00 0.00 79 1023.0
20260905090019 32 0.0 0.0 0.00 0.00 0.00 85 1023.0
20260905085019 31 0.0 0.0 0.00 0.00 0.00 91 1023.0
20260905084019 30 0.0 0.0 0.00 0.00 0.00 94 1023.0
20260905083019 29 0.0 0.0 0.00 0.00 0.00 98 1022.9
20260905082019 28 0.0 0.0 0.00 0.00 0.00 10 1022.8
20260905081019 27 0.0 0.0 0.00 0.00 0.00 10 1022.6
20260905080019 26 0.0 0.0 0.00 0.00 0.00 10 1022.5
20260905075019 25 0.0 0.0 0.00 0.00 0.00 10 1022.4
20260905074018 23 0.0 0.0 0.00 0.00 0.00 10 1022.3
20260905073020 22 0.0 0.0 0.00 0.00 0.00 10 1022.3
20260905072018 22 0.0 0.0 0.00 0.00 0.00 10 1022.2
20260905071019 21 0.0 0.0 0.00 0.00 0.00 10 1022.1
20260905064018 20 0.0 0.0 0.00 0.00 0.00 10 1021.6
20260905063018 20 0.0 0.0 0.00 0.00 0.00 10 1021.6
20260905062018 19 0.0 0.0 0.00 0.00 0.00 10 1021.5
20260905061018 18 0.0 0.0 0.00 0.00 0.00 10 1021.4
20260905060018 18 0.0 0.0 0.00 0.00 0.00 10 1021.4
20260905055018 18 0.0 0.0 0.00 0.00 0.00 10 1021.4
20260905054018 17 0.0 0.0 0.00 0.00 0.00 10 1021.2
20260905053018 17 0.0 0.0 0.00 0.00 0.00 10 1021.1
20260905052018 17 0.0 0.0 0.00 0.00 0.00 10 1021.1
20260905051018 16 0.0 0.0 0.00 0.00 0.00 10 1021.1
20260905050018 16 0.0 0.0 0.00 0.00 0.00 10 1021.2
20260905045018 16 0.0 0.0 0.00 0.00 0.00 10 1021.1
20260905044018 16 0.0 0.0 0.00 0.00 0.00 10 1021.0
20260905043018 16 0.0 0.0 0.00 0.00 0.00 10 1020.9
20260905042018 16 0.0 0.0 0.00 0.00 0.00 10 1020.9
20260905041018 16 0.0 0.0 0.00 0.00 0.00 10 1020.8
20260905040018 16 0.0 0.0 0.00 0.00 0.00 10 1020.9
20260905035018 17 0.0 0.0 0.00 0.00 0.00 10 1020.8
20260905034018 17 0.0 0.0 0.00 0.00 0.00 10 1020.8
20260905033018 17 0.0 0.0 0.00 0.00 0.00 10 1020.8
20260905032018 17 0.0 0.0 0.00 0.00 0.00 10 1020.8
20260905031018 17 0.0 0.0 0.00 0.00 0.00 10 1020.9
20260905030018 17 0.0 0.0 0.00 0.00 0.00 10 1021.0
20260905025018 17 0.0 0.0 0.00 0.00 0.00 10 1020.8
20260905024018 17 0.0 0.0 0.00 0.00 0.00 10 1020.9